Regional Weather Roundup
Issued by NWS Wakefield, VA

Home | Current Version | Previous Version | Text Only | Print | Product List | Glossary On
Versions: 1 2 3 4 5 6 7 8 9 10 11 12 13 14 15 16 17 18 19 20 21 22 23 24 25 26 27
000
ASUS41 KAKQ 290615
RWRAKQ

REGIONAL WEATHER ROUNDUP
NATIONAL WEATHER SERVICE WAKEFIELD VA
200 AM EDT MON MAY 29 2017

Note: "fair" indicates few or no clouds below 12,000 feet with no
significant weather and/or obstructions to visibility. * = Denotes
station may not report precipitation (e.g., rain,snow,etc.),
thunder or fog.

VAZ042-051-052>054-056-290700-
NORTHERN VIRGINIA

CITY           SKY/WX    TMP DP  RH WIND       PRES   REMARKS
WASH NATIONAL  LGT RAIN  65  64  97 E5        29.81S
DULLES         CLOUDY    64  63  96 CALM      29.82R FOG
FORT BELVOIR   CLOUDY    64  63  94 CALM      29.81R
QUANTICO       CLOUDY    67  66  97 CALM      29.82S
FREDERICKSBRG* CLOUDY    67  67 100 CALM      29.80S
STAFFORD*      FOG       65  65 100 CALM      29.86R VSB 1/2
WARRENTON      CLOUDY    66  64  90 CALM      29.82S FOG
CULPEPER*      FOG       66  66 100 CALM      29.83S VSB 1
MANASSAS*      CLOUDY    65  65 100 CALM      29.82S FOG
LEESBURG*      CLOUDY    64  64 100 SE3       29.83S FOG
WINCHESTER     DRIZZLE   61  61 100 CALM      29.82R
FRONT ROYAL*   CLOUDY    63  63 100 W3        29.82R
LURAY*         CLOUDY    64  64 100 SW5       29.84R FOG
$$

VAZ048-049-060>072-079>083-290700-
CENTRAL AND SOUTH CENTRAL VIRGINIA

CITY           SKY/WX    TMP DP  RH WIND       PRES   REMARKS
RICHMOND       CLOUDY    70  68  93 CALM      29.80S FOG
CHESTERFIELD*  NOT AVBL
PETERSBURG*    LGT RAIN  67  66  99 CALM      29.81S
HANOVER        CLOUDY    68  65  90 CALM      29.81F FOG
TAPPAHANNOCK*  CLOUDY    68  68 100 CALM      29.81R
QUINTON*       CLOUDY    67  67 100 W6        29.79F FOG
CHARLOTTSVILLE CLOUDY    67  66  97 CALM      29.83S FOG
GORDONSVILLE*  FOG       65  65 100 CALM      29.83R VSB 1
ORANGE*        FOG       64  64 100 W3        29.83R VSB 1
LOUISA*        FOG       70  70 100 CALM      29.82R VSB 3/4
BUMPASS*       CLOUDY    65  65 100 CALM      29.82R
FARMVILLE*     FOG       66  63  91 CALM      29.82S VSB 1/4
CREWE*         CLOUDY    65  61  87 CALM      29.82S
FORT PICKETT*  CLOUDY    65  62  87 CALM      29.82S VSB 1/4
CHASE CITY*    CLOUDY    65  63  94 CALM      29.84S VSB 1/4
CLARKSVILLE*   CLOUDY    68  68 100 CALM      29.84R VSB 1/2
SOUTH HILL*    CLEAR     65  65 100 CALM      29.88S
LAWRENCEVILLE* FAIR      67  66  96 CALM      29.82S
EMPORIA*       MOCLDY    68  68 100 CALM      29.82R
$$

VAZ088>098-290700-
SOUTHEAST VIRGINIA

CITY           SKY/WX    TMP DP  RH WIND       PRES   REMARKS
NORFOLK        MOCLDY    68  66  93 W3        29.79R
VIRGINIA BEACH CLOUDY    63  62  97 SW5       29.78S
NORFOLK NAVAL  CLOUDY    68  65  90 W3        29.81R
WEST POINT*    CLOUDY    67  67  97 CALM      29.80F
SALUDA*        MOCLDY    66  66 100 CALM      29.79S
NEWPORT NEWS   MOCLDY    67  66  97 CALM      29.79F
LANGLEY AFB    CLOUDY    67  67 100 W3        29.79R
FORT EUSTIS    MOCLDY    68  67  95 CALM      29.76F
WILLIAMSBURG*  CLOUDY    70  70 100 CALM      29.79F
HR EXEC AP*    FAIR      63  61  94 CALM      29.78R
FRANKLIN*      PTCLDY    67  66  96 CALM      29.80S
US460-WAKEFLD  PTCLDY    67  67 100 CALM      29.80S FOG
$$

VAZ020-022-025-037-045-290700-
WEST CENTRAL AND SOUTHWEST VIRGINIA

CITY           SKY/WX    TMP DP  RH WIND       PRES   REMARKS
STAUNTON*      CLOUDY    64  63  99 CALM      29.86F FOG
WAYNESBORO*    MOCLDY    63  63 100 W3        29.85F
HOT SPRINGS VA CLOUDY    59  54  82 W16G23    29.94F
LYNCHBURG      FOG       63  62  97 CALM      29.86S VSB 3/4
DANVILLE       PTCLDY    65  63  93 W6        29.85S
SOUTH BOSTON*  CLOUDY    66  65  94 CALM      29.84S VSB 1/2
MARTINSVILLE   CLOUDY    60  59  95 CALM      29.90F
ROANOKE        MOCLDY    67  62  84 W6        29.89S
BLACKSBURG     CLOUDY    63  60  90 CALM      29.95S
DUBLIN*        CLOUDY    65  58  78 SW7       29.95R
MARION*        CLOUDY    64  60  90 CALM      29.99S
HILLSVILLE*    MOCLDY    62  55  77 CALM      29.96R
RICHLANDS*     CLOUDY    64  60  89 SW6       29.97S
WISE*          CLOUDY    64  55  72 CALM      29.98S
ABINGDON*      CLOUDY    65  64  95 CALM      29.96R
$$

MDZ021>025-VAZ099-100-290700-
SOUTHERN MARYLAND AND THE DELMARVA PENINSULA

CITY           SKY/WX    TMP DP  RH WIND       PRES   REMARKS
PATUXENT RIVER CLOUDY    64  64 100 NE5       29.79S
BAY BRIDGE APT CLOUDY    63  61  94 NE3       29.80F
LEONARDTOWN    CLOUDY    63  61  94 CALM      29.81F
DOVER          CLOUDY    61  61 100 NE7       29.79F
GEORGETOWN     LGT RAIN  62  60  93 NE9       29.79F FOG
EASTON         CLOUDY    63  60  93 E7        29.82F
CAMBRIDGE      CLOUDY    63  61  94 NE3       29.79F
SALISBURY      CLOUDY    62  62 100 N3        29.77F
OCEAN CITY     CLOUDY    62  61  96 N9        29.78F
WALLOPS ISLAND FOG       64  64 100 NW7       29.77S VSB 3/4
ACCOMACK*      CLOUDY    67  25  20 N5        29.77F
$$

NCZ012>017-030>032-290700-
NORTH CENTRAL AND EASTERN NORTH CAROLINA

CITY           SKY/WX    TMP DP  RH WIND       PRES   REMARKS
ROANOKE RAPIDS FAIR      70  68  94 CALM      29.80S
RALEIGH        PTCLDY    70  66  87 CALM      29.85R
ELIZABETH CITY FOG       72  72 100 CALM      29.79S VSB 1/4
AHOSKIE*       NOT AVBL
EDENTON*       CLOUDY    73  71  93 CALM      29.79S
CURRITUCK*     FOG      N/A N/A N/A CALM      29.80S VSB 1/4
KILL DEVIL HLS CLOUDY    66  66 100 CALM      29.78S FOG
MANTEO         CLOUDY    69  68  98 E3        29.79S
CAPE HATTERAS  CLOUDY    76  73  91 W8        29.80R
TARBORO*       NOT AVBL
GOLDSBORO      PTCLDY    74  74 100 W9        29.81R
WASHINGTON     MOCLDY    74  69  84 W5        29.81R
GREENVILLE     CLOUDY    77  70  78 W3        29.84R
NEW BERN       CLOUDY    75  70  84 SW8       29.82R
WILMINGTON     CLEAR     70  68  93 SW8       29.85S
$$

VAZ048-290700-
ELSEWHERE

CITY           SKY/WX    TMP DP  RH WIND       PRES   REMARKS
HARRISBURG PA  DRIZZLE   60  59  96 E7        29.82S
BALTIMORE      CLOUDY    62  62 100 E8        29.80F
ANNAPOLIS      CLOUDY    65  64  97 NE5       29.80F
ANDREWS AFB    CLOUDY    63  62  99 E5        29.80F
PHILADELPHIA   LGT RAIN  60  57  89 E8        29.84F
HENDERSON NC   CLEAR     66  62  85 CALM      29.84S
GREENSBORO     CLOUDY    68  62  81 NW8       29.87S
ROCKY MOUNT    CLOUDY    74  69  85 W5        29.82R
$$

VAZ100-290700-
MARINE

STATION/POSITION TIME  TEMP    WIND        PRES    WAVE   SWELL
                       AIR SEA DIR/SP/G            HT/PER HT/PER
                 (UTC) (F)     (DEG/KT/KT) (MB)    (FT/S) (FT/S)
CAPE MAY NJ      0536      63   70/  5/ 10 1008.5F
LEWES DE         0536      64   70/ 12/ 13 1008.6F
15NM E FENWICK I 0550   60 59   10/ 10/ 12 1008.1F   4/ 6   3/ 6
WACHAPREAGUE VA  0536      70  300/  1/  3 1007.8F
THOMAS POINT MD  0600   63 65   60/  6/  6   N/A
GOOSES REEF MD   0600   64 65   70/  6/  8 1009.7    1/ 2
COVE POINT MD    0548           40/  5/  6 1009.3F
SOLOMONS ISLAND  0536      68   10/  3/  5   N/A
BISHOPS HEAD MD  0536      71   20/  4/  7 1009.0F
PINEY POINT MD   0548           60/  3/  3   N/A
POTOMAC MD       0600   65 68   40/  6/  6 1007.8    0
CAMBRIDGE MD     0536      70                N/A
LEWISETTA VA     0536      70   30/  3/  4 1008.6F
RAPPAHANNOCK LGT 0548          310/  7/  8 1009.2R
STINGRAY PT      0600   68 69  320/  6/  8 1008.3    0
YORK RVR RNG VA  0548          290/  6/  7 1008.3S
YORKTOWN VA      0536      70  250/  5/  6 1008.6F
JAMESTOWN VA     0600   69 73   80/  2/  4   N/A     0
DOMINION TERM VA 0548          330/  3/  4 1009.0R
KIPTOPEKE VA     0536      68  330/  7/  8   N/A
CHES BAY BRIDGE  0536      67  290/  2/  2 1008.3F
CAPE HENRY VA    0548          260/  4/  5   N/A
WILLOUBY STN VA  0548          300/  3/  4 1008.8R
S CRANEY ISL VA  0548          260/  3/  5 1008.6R
CAPE HENRY BUOY  0542      64                N/A     2/ 8
1ST LANDING BUOY 0600   68 67              1008.9    1/ 4
CAPE CHARLES BUO 0551      65                N/A     2/ 7
64NM E OF VA BCH 0550   63 64  250/  8/ 10 1009.0F   3/ 6   3/ 6
DUCK PIER NC     0536      68  100/  3/  3 1008.4F
44100 DUCK FRF   0505      66                N/A     2/ 8
44056 DUCK FRF   0500      68                N/A     2/ 7
OREGON INLET NC  0536      75   80/  3/  4 1008.4F
HATTERAS NC      0536      76  250/  9/ 14 1008.9R
DIAMOND SHLS NC  0550   76 76  240/ 16/ 17 1008.2F   6/ 6   2/11
CAPE LOOKOUT NC  0600   75     240/ 12/ 17 1009.4R
$$




USA.gov is the U.S. government's official web portal to all federal, state and local government web resources and services.